ADVERTISEMENT

iOS app on App Store Android app on Google Play

2018 \ Aloha Run Long Beach - September 16, 2018

Notes Pages Download Filter By
  [1] 2 3 4 5 6




Keyword Exact  
Division

Bib First Name Last Name City State Total Time Division Division Place Overall
3839 Tyler Long Los Angeles CA 00:36:29 40-44 M 1 1
4729 SHINSUKE ADACHI Redondo Beach CA 00:36:37 40-44 M 2 2
4782 Bryan Camarillo Harbor City CA 00:37:12 25-29 M 1 3
4629 Alan Squyres Lancaster CA 00:40:13 35-39 M 1 4
4624 Luis Mora South Gate CA 00:42:24 35-39 M 2 5
4273 Arkilles Joshua Jr. Compton CA 00:43:24 15-19 M 1 6
4262 Reed Goossens Long Beach CA 00:43:35 30-34 M 1 7
4138 Matt Manley Huntington Beach CA 00:44:00 40-44 M 3 8
4634 Wilson Vaca Temple City CA 00:44:05 50-54 M 1 9
4739 Rosa Sanchez-Ervin -- 00:44:12 40-44 F 1 10
4458 Kenzie Macpherson Redlands CA 00:44:19 55-59 M 1 11
4088 Richard Plummer Oceanside CA 00:44:44 40-44 M 4 12
4456 Glauco Pires -- 00:45:49 25-29 M 2 13
4724 Mirza E. Gallardo Placentia CA 00:46:00 50-54 F 1 14
3849 Ashley McLeish Los Angeles CA 00:46:48 30-34 F 1 15
3282 patrick delaney Norwalk CA 00:46:51 50-54 M 2 16
4269 Brandon Lutz Marina Del Rey CA 00:47:42 35-39 M 3 17
4144 KWANG CHONG Fullerton CA 00:47:46 40-44 M 5 18
4660 Francisco Pantoja Sylmar CA 00:47:53 55-59 M 2 19
4335 Anthony Clayburg Grover Beach CA 00:48:07 45-49 M 1 20
4343 Catherine Barnett Long Beach CA 00:48:08 30-34 F 2 21
4603 Carmen Vargas De Lapeyra Redondo Beach CA 00:48:26 50-54 F 2 22
4136 Sam Viray Chula Vista CA 00:48:34 15-19 M 2 23
4264 Kaitlin Fuelling Los Angeles CA 00:48:38 25-29 F 1 24
4121 Daizo Matsumoto Azusa CA 00:49:33 45-49 M 2 25
3861 Esteban De La Torre Norwalk CA 00:50:34 40-44 M 6 26
4093 Shaun Vasquez Porterville CA 00:50:45 15-19 M 3 27
3862 Brien Dodd Orange CA 00:51:00 60-64 M 1 28
4286 Diego Amezcua Hesperia CA 00:51:07 25-29 M 3 29
4332 Kenneth Ripperton Simi Valley CA 00:51:34 50-54 M 3 30
3994 Jeff Little Costa Mesa CA 00:51:42 30-34 M 2 31
3999 Sheryl Imperio Paramount CA 00:51:47 30-34 F 3 32
4171 Anthony Pacheco Anaheim CA 00:51:48 25-29 M 4 33
3848 Lawrence Lau Van Nuys CA 00:51:51 35-39 M 4 34
4723 Conrad Garner Long Beach CA 00:52:06 35-39 M 5 35
3878 Karl Pape Apensen NI 00:52:20 50-54 M 4 36
3498 Andy Felter Cypress CA 00:52:30 40-44 M 7 37
3857 Sandra Del Cid Lakewood CA 00:52:46 35-39 F 1 38
3833 Reggie Santos Long Beach CA 00:52:48 55-59 M 3 39
4459 Andy Ervin Fontana CA 00:52:56 15-19 M 4 40
4761 AMY CHAMBERS Long Beach CA 00:52:57 35-39 F 2 41
3276 DON OTJEN Carson CA 00:53:04 50-54 M 5 42
3385 Robin Su Alhambra CA 00:53:08 25-29 F 2 43
4655 Anne Kinney Mission Viejo CA 00:53:16 45-49 F 1 44
3984 Marisela Hernandez Torrance CA 00:53:21 40-44 F 2 45
4467 Dennis Narciso Glendale CA 00:53:26 35-39 M 6 46
4073 Larissa Benigno Winchester CA 00:53:29 45-49 F 2 47
4621 Richard Mclure Torrance CA 00:53:29 50-54 M 6 48
4628 Steven Carney Long Beach CA 00:53:34 30-34 M 3 49
4139 Erick Peraza Gardena CA 00:53:35 30-34 M 4 50
4745 John Farrace Los Angeles CA 00:53:37 30-34 M 5 52
4265 Cherrena Pruitt Bell Gardens CA 00:53:37 40-44 F 3 51
4272 Laura Saldarriaga Los Angeles CA 00:53:37 35-39 F 3 53
4266 Stacey Frantela II Long Beach CA 00:53:41 40-44 M 8 54
4142 Kristine Danao Chino CA 00:53:49 35-39 F 4 56
4000 Leng Chuor Paramount CA 00:53:49 30-34 M 6 55
4274 Richard Spaulding -- 00:53:50 30-34 M 7 58
4645 Jim Giordano Anaheim CA 00:53:50 50-54 M 7 57
4710 Kevin Nemandoust Long Beach CA 00:53:53 25-29 M 5 59
4618 Thomas Martin San Juan Capo CA 00:53:54 60-64 M 2 60
3871 Clint Tan -- 00:53:57 15-19 M 5 61
4773 Jaime Escamilla, Jr. South Gate CA 00:54:03 35-39 M 7 62
3398 Troy Hansgen Upland CA 00:54:16 50-54 M 8 63
3870 Alex Morales Diamond Bar CA 00:54:44 45-49 M 3 64
3852 Jayden Choi Los Angeles CA 00:54:47 25-29 M 6 65
3872 Maria Alvarez Paramount CA 00:54:54 35-39 F 5 66
4715 Byron Strope Upland CA 00:55:00 55-59 M 4 67
4256 Mike DeKoker Huntington Beach CA 00:55:02 40-44 M 9 68
3486 Tammi Zelm Placentia CA 00:55:06 50-54 F 3 70
3484 Jazz Hoxsie Placentia CA 00:55:06 35-39 F 6 69
3985 Jo Ann Valdez Long Beach CA 00:55:12 50-54 F 4 72
4772 Ron Villanueva North Hollywood CA 00:55:12 40-44 M 10 71
4671 Reiley Logan Yucaipa CA 00:55:17 15-19 F 1 74
3254 JIWON KIM Buena Park CA 00:55:17 35-39 M 8 73
4670 Brielle Bennie Beaumont CA 00:55:21 15-19 F 2 75
3394 Sandy Rodriguez Fontana CA 00:55:24 45-49 F 3 76
4375 Franchezska Zamora Pasadena CA 00:55:25 45-49 F 4 77
4757 Salvador Rodriguez Whittier CA 00:55:27 35-39 M 9 78
4141 Dan Aitch London CM 00:55:36 50-54 M 9 79
4669 KYLEA KRUSE Calimesa CA 00:55:39 15-19 F 3 80
4276 Logan Dolph Santa Monica CA 00:55:42 30-34 M 8 81
3832 STEVEN DE LA TORRE Norwalk CA 00:55:56 15-19 M 6 82
3838 Jennifer Kawahira Los Angeles CA 00:56:04 40-44 F 4 83
3492 Joseph Dypiangco Chino Hills CA 00:56:07 50-54 M 10 84
4470 Malcolm Lovelace Reseda CA 00:56:15 10-14 M 1 86
4687 Bre Ritter Huntington Beach CA 00:56:15 25-29 F 3 85
4722 Jose Cerna Bakersfield CA 00:56:16 30-34 M 9 87
4779 Lukas Holzer Klagenfurt 2 00:56:21 30-34 M 10 88
4748 Stacey Kasper Long Beach CA 00:56:28 25-29 F 4 89
3989 Joy Shoemaker Montrose CA 00:56:28 35-39 F 7 90
3876 Douglas Vera Los Angeles CA 00:56:29 25-29 M 7 91
3284 Karla Gonzalez Riverside CA 00:56:29 40-44 F 5 92
3273 Divina Perez Eastvale CA 00:56:31 45-49 F 5 93
3982 Tomomi Kitazume Rancho Palos Verdes CA 00:56:32 45-49 F 6 94
3977 Chrissy Nguyen Garden Grove CA 00:56:38 30-34 F 4 95
4078 David Quigg Pasadena CA 00:56:52 45-49 M 4 96
4605 Ricardo Rodriguez Chino CA 00:56:53 35-39 M 10 97
4617 Lauren Allison Redondo Beach CA 00:56:59 30-34 F 5 98
4331 Divad Aguilera South Gate CA 00:57:04 40-44 F 6 99
3268 Karen Kamimae San Pedro CA 00:57:07 60-64 F 1 100
Notes Pages Download Filter By
  [1] 2 3 4 5 6 7 8 9 10 11 12 13




Keyword Exact  
Division

Bib First Name Last Name City State Total Time Division Division Place Overall
1345 Bryan Camarillo Harbor City CA 00:18:24 25-29 M 1 1
1029 Jesse Montes West Covina CA 00:18:48 40-44 M 1 2
1068 Nicole Kuan Los Angeles CA 00:19:16 15-19 F 1 3
1123 Faheem Chunara Culver City CA 00:19:52 15-19 M 1 4
995 Christopher Johnson Seal Beach CA 00:20:24 45-49 M 1 5
2465 Luis Ambriz Downey CA 00:20:42 50-54 M 1 6
2469 Jose Leos Baldwin Park CA 00:20:42 30-34 M 1 7
1285 Roberto Ferrito Pasadena CA 00:21:00 45-49 M 2 8
2471 Peter Martinez Orange CA 00:21:12 45-49 M 3 9
2462 Thomas Steinmetz Torrance CA 00:21:38 40-44 M 2 10
2313 Benjamin Roth Desko Costa Mesa CA 00:21:50 35-39 M 1 11
1399 Majella Carrera Pico Rivera CA 00:22:01 15-19 F 2 12
2716 Von Omo La Mesa CA 00:22:02 30-34 M 2 13
2401 Rosalinda Alcala Anaheim CA 00:22:04 45-49 F 1 14
497 Patrick Muk Lakewood CA 00:22:14 15-19 M 2 15
1898 Gary Pavlick Manhattan Beach CA 00:22:14 60-64 M 1 16
1102 Nick Reynoso Long Beach CA 00:22:23 20-24 M 1 17
2153 BRYAN RAMIREZ Inglewood CA 00:22:43 1-9 M 1 18
2770 Howard Colby Long Beach CA 00:22:47 55-59 M 1 19
1852 Dave Pancham Sherman Oaks CA 00:22:48 30-34 M 3 20
287 Nancy Garcia Buena Park CA 00:23:14 45-49 F 2 21
2375 Walter Kowalewski Los Alamitos CA 00:23:16 15-19 M 3 22
2504 Merissa Allen Van Nuys CA 00:23:17 25-29 F 1 23
994 Michael Padrick Lompoc CA 00:23:26 50-54 M 2 24
1999 Jesse Randle CA 00:23:27 30-34 M 4 25
257 Cody Schreiner -- 00:23:36 1-9 M 2 26
258 David Schreiner -- 00:23:38 35-39 M 2 27
2316 Jill Desko Costa Mesa CA 00:23:39 30-34 F 1 28
1358 EJ Masuda Los Angeles CA 00:23:47 40-44 F 1 29
2320 Christian Giron Long Beach CA 00:23:50 15-19 M 4 30
1064 Ramsey Nasser Los Angeles CA 00:23:57 30-34 M 5 32
2159 Michael Levor Arcana Los Angeles CA 00:23:57 25-29 M 2 31
1381 Nico Cacarnakis Pasadena CA 00:24:04 10-14 M 1 33
992 Jeff Wightman La Mirada CA 00:24:11 55-59 M 2 34
1961 FELIPE Diaz Downey CA 00:24:15 35-39 M 3 36
2400 Jennifer Brutocao Huntington Beach CA 00:24:15 35-39 F 1 35
1829 Diego Zamora Long Beach CA 00:24:19 55-59 M 3 37
1996 Andrew Vasquez Anaheim CA 00:24:22 35-39 M 4 38
297 Lee Ann Leung Irvine CA 00:24:23 30-34 F 2 39
1266 Aldin Enriquez West Hollywood CA 00:24:39 25-29 M 3 40
2367 Justin Deyle Huntington Beach CA 00:24:40 45-49 M 4 41
1842 Krizia Kolakowski Bellflower CA 00:24:44 25-29 F 2 42
1956 Dennis De Hoop Cerritos CA 00:24:44 40-44 M 3 43
1884 Danilo Albano Glendora CA 00:25:06 45-49 M 5 44
232 MARCO VARGAS -- 00:25:07 50-54 M 3 46
2662 Stacy McCartney Fountain Valley CA 00:25:07 35-39 F 2 45
1993 daniel alexander CA 00:25:09 Overall 47 47
1295 Mark Weller Hesperia CA 00:25:14 45-49 M 6 48
1184 Giovanni Manzo Harbor City CA 00:25:16 10-14 M 2 50
2552 Todd Tabon Cerritos CA 00:25:16 45-49 M 7 49
2291 Masis Karimian Richmond Hill ON 00:25:19 40-44 M 4 51
1372 Clay Neiswender Long Beach CA 00:25:26 30-34 M 6 52
2670 Andreas Ottesen Hammari Kjeller 2 00:25:44 25-29 M 4 53
2463 Elizabeth Diaz Downey CA 00:25:46 45-49 F 3 54
1894 Louis Martinez South Gate CA 00:25:49 35-39 M 5 55
2539 Brien Dodd Orange CA 00:25:54 60-64 M 2 56
1219 Andrew Calzada -- 00:26:00 20-24 M 2 57
1349 Ralph Quesada Riverside CA 00:26:00 55-59 M 4 57
2151 Daniel Rodgers Inglewood CA 00:26:00 40-44 M 5 59
1249 Marja Rosette Sherman Oaks CA 00:26:14 30-34 F 3 60
2402 David Autenrieth Sierra Madre CA 00:26:17 55-59 M 5 61
1871 Demian Scott Vaughs Redondo Beach CA 00:26:18 45-49 M 8 62
2314 Julie Smithwick Artesia CA 00:26:29 30-34 F 4 63
1352 Ameelia Ghareeb Long Beach CA 00:26:35 40-44 F 2 64
2403 Ana Martinez -- 00:26:35 15-19 F 3 65
1347 Blanca Ramirez La Puente CA 00:26:38 15-19 F 4 66
2786 Rosy Mart?nez Irvine CA 00:26:39 30-34 F 5 67
1039 Jordan Bringas Riverside CA 00:26:43 10-14 M 3 68
1967 Francis Zamora Cerritos CA 00:26:55 40-44 M 6 69
2018 Robert Wissusik Thousand Oaks CA 00:27:01 55-59 M 6 70
2653 Fabian Espinoza Downey CA 00:27:02 30-34 M 7 71
1801 Jonathan M. Doma Cypress CA 00:27:05 25-29 M 5 72
1596 Nathen Castillo Harbor City CA 00:27:07 1-9 M 3 74
1035 Tara McClure Rancho Cucamonga CA 00:27:07 15-19 F 5 73
1385 Philip Kushiner Redondo Beach CA 00:27:08 50-54 M 4 76
1075 Gabby Miranda Los Angeles CA 00:27:08 15-19 F 6 75
1045 Heather Hill Redondo Beach CA 00:27:09 45-49 F 4 77
2116 Gerson Espindola West Hollywood CA 00:27:12 45-49 M 9 78
1230 Lauren Schulte Venice CA 00:27:12 30-34 F 6 79
2729 Robert Villagran Rowland Heights CA 00:27:15 60-64 M 3 80
2659 Don Brown Dana Point CA 00:27:21 65-69 M 1 81
1062 Tarek Wehbe Laguna Niguel CA 00:27:29 35-39 M 6 82
1178 Mickey Burg Simi Valley CA 00:27:30 35-39 F 3 83
1267 Sean Ruiz West Hollywood CA 00:27:40 50-54 M 5 84
2484 Joven Cala Fontana CA 00:27:41 50-54 M 6 85
2470 Kelley Martinez Orange CA 00:27:49 40-44 F 3 86
1591 Jayme Milne Long Beach CA 00:27:51 35-39 F 4 87
2157 Robert Hatfield Santa Monica CA 00:27:54 55-59 M 7 88
2491 Alicia Ramos Arcadia CA 00:28:06 45-49 F 5 89
2154 SUZANNE LOZANO Inglewood CA 00:28:08 30-34 F 7 90
2665 Mark Kayano Garden Grove CA 00:28:08 30-34 M 8 91
1155 Katie Shakespeare Yucaipa CA 00:28:17 15-19 F 7 92
1887 Alexis Lopez Northridge CA 00:28:17 30-34 F 8 93
1157 Gabriel Martinez Yorba Linda CA 00:28:21 25-29 M 6 94
1907 Eric Martincavage Seal Beach CA 00:28:22 45-49 M 10 95
2311 Eden De Lacruz Chino Hills CA 00:28:24 10-14 F 1 96
2715 Jennifer Yamashiro Torrance CA 00:28:24 25-29 F 3 97
2642 Robyn Robbins Torrance CA 00:28:25 55-59 F 1 98
1832 Jasmine Limosnero Long Beach CA 00:28:29 30-34 F 9 99
1346 Jordan Ramirez La Puente CA 00:28:35 1-9 M 4 100